Time,TemperatureF,DewpointF,PressureIn,WindDirection,WindDirectionDegrees,WindSpeedMPH,WindSpeedGustMPH,Humidity,HourlyPrecipIn,Conditions,Clouds,dailyrainin,SoftwareType,DateUTC
2013-04-12 00:03:00,31.8,31.3,28.26,NNE,33,7.0,12.3,98,0.00,,,-99.99,FreeWX-Wi 1.01,2013-04-12 05:03:00,
2013-04-12 00:08:00,31.8,31.3,28.26,NNE,28,7.0,11.4,98,0.00,,,-99.99,FreeWX-Wi 1.01,2013-04-12 05:08:00,
2013-04-12 00:13:00,31.8,31.3,28.26,NNE,26,8.0,12.3,98,0.00,,,-99.99,FreeWX-Wi 1.01,2013-04-12 05:13:00,
2013-04-12 00:18:00,31.8,31.3,28.26,NNE,24,9.0,13.2,98,0.00,,,-99.99,FreeWX-Wi 1.01,2013-04-12 05:18:00,
2013-04-12 00:24:00,31.6,30.9,28.26,NNE,22,9.0,13.2,97,0.00,,,-99.99,FreeWX-Wi 1.01,2013-04-12 05:24:00,
2013-04-12 00:29:00,31.6,30.9,28.26,NNE,21,9.0,12.3,97,0.00,,,-99.99,FreeWX-Wi 1.01,2013-04-12 05:29:00,
2013-04-12 00:34:00,31.6,30.6,28.26,NNE,21,9.0,12.8,96,0.00,,,-99.99,FreeWX-Wi 1.01,2013-04-12 05:34:00,
2013-04-12 00:39:00,31.6,30.6,28.26,NNE,23,9.0,12.3,96,0.00,,,-99.99,FreeWX-Wi 1.01,2013-04-12 05:39:00,
2013-04-12 00:44:00,31.5,30.4,28.26,NNE,24,9.0,12.8,96,0.00,,,-99.99,FreeWX-Wi 1.01,2013-04-12 05:44:00,
2013-04-12 00:55:00,31.5,30.4,28.26,NNE,23,8.0,10.5,96,0.00,,,-99.99,FreeWX-Wi 1.01,2013-04-12 05:55:00,
2013-04-12 01:00:00,31.5,30.4,28.26,NNE,21,7.0,9.6,96,0.00,,,-99.99,FreeWX-Wi 1.01,2013-04-12 06:00:00,
2013-04-12 01:05:00,31.3,30.0,28.26,NNE,19,6.0,9.6,95,0.00,,,-99.99,FreeWX-Wi 1.01,2013-04-12 06:05:00,
2013-04-12 01:10:00,31.3,30.0,28.26,NNE,19,6.0,10.1,95,0.00,,,-99.99,FreeWX-Wi 1.01,2013-04-12 06:10:00,
2013-04-12 01:15:00,31.3,30.0,28.26,NNE,19,6.0,10.1,95,0.00,,,-99.99,FreeWX-Wi 1.01,2013-04-12 06:15:00,
2013-04-12 01:20:00,31.3,29.8,28.26,NNE,19,6.0,8.7,94,0.00,,,-99.99,FreeWX-Wi 1.01,2013-04-12 06:20:00,
2013-04-12 01:25:00,31.3,29.8,28.26,NNE,22,6.0,10.1,94,0.00,,,-99.99,FreeWX-Wi 1.01,2013-04-12 06:25:00,
2013-04-12 01:31:00,31.3,29.8,28.26,NNE,21,6.0,8.3,94,0.00,,,-99.99,FreeWX-Wi 1.01,2013-04-12 06:31:00,
2013-04-12 01:36:00,31.3,29.8,28.26,NNE,21,6.0,8.7,94,0.00,,,-99.99,FreeWX-Wi 1.01,2013-04-12 06:36:00,
2013-04-12 01:41:00,31.3,30.0,28.26,NNE,19,6.0,10.5,95,0.00,,,-99.99,FreeWX-Wi 1.01,2013-04-12 06:41:00,
2013-04-12 01:46:00,31.3,30.2,28.26,NNE,18,6.0,10.1,96,0.00,,,-99.99,FreeWX-Wi 1.01,2013-04-12 06:46:00,
2013-04-12 01:51:00,31.1,30.0,28.26,NNE,19,6.0,9.6,96,0.00,,,-99.99,FreeWX-Wi 1.01,2013-04-12 06:51:00,
2013-04-12 01:56:00,31.1,30.4,28.26,NNE,18,6.0,10.5,97,0.00,,,-99.99,FreeWX-Wi 1.01,2013-04-12 06:56:00,
2013-04-12 02:01:00,30.9,30.2,28.26,NNE,17,6.0,9.6,97,0.00,,,-99.99,FreeWX-Wi 1.01,2013-04-12 07:01:00,
2013-04-12 02:07:00,30.9,30.2,28.23,NNE,16,6.0,9.6,97,0.00,,,-99.99,FreeWX-Wi 1.01,2013-04-12 07:07:00,
2013-04-12 02:12:00,30.9,30.4,28.23,NNE,16,7.0,10.1,98,0.00,,,-99.99,FreeWX-Wi 1.01,2013-04-12 07:12:00,
2013-04-12 02:17:00,30.9,30.4,28.23,NNE,16,7.0,8.3,98,0.00,,,-99.99,FreeWX-Wi 1.01,2013-04-12 07:17:00,
2013-04-12 02:22:00,30.7,30.2,28.23,NNE,14,7.0,10.1,98,0.00,,,-99.99,FreeWX-Wi 1.01,2013-04-12 07:22:00,
2013-04-12 02:27:00,30.7,30.2,28.23,North,11,7.0,8.7,98,0.00,,,-99.99,FreeWX-Wi 1.01,2013-04-12 07:27:00,
2013-04-12 02:38:00,30.6,30.0,28.23,North,11,7.0,10.5,98,0.00,,,-99.99,FreeWX-Wi 1.01,2013-04-12 07:38:00,
2013-04-12 02:43:00,30.6,30.0,28.23,North,9,7.0,8.3,98,0.00,,,-99.99,FreeWX-Wi 1.01,2013-04-12 07:43:00,
2013-04-12 02:48:00,30.4,29.8,28.23,North,7,7.0,8.3,98,0.00,,,-99.99,FreeWX-Wi 1.01,2013-04-12 07:48:00,
2013-04-12 02:53:00,30.4,29.8,28.23,North,6,6.0,8.3,98,0.00,,,-99.99,FreeWX-Wi 1.01,2013-04-12 07:53:00,
2013-04-12 02:58:00,30.4,29.8,28.23,North,5,6.0,8.7,98,0.00,,,-99.99,FreeWX-Wi 1.01,2013-04-12 07:58:00,
2013-04-12 03:03:00,30.4,29.8,28.23,North,1,6.0,7.6,98,0.00,,,-99.99,FreeWX-Wi 1.01,2013-04-12 08:03:00,
2013-04-12 03:09:00,30.4,29.8,28.23,North,358,6.0,7.6,98,0.00,,,-99.99,FreeWX-Wi 1.01,2013-04-12 08:09:00,
2013-04-12 03:14:00,30.4,29.8,28.23,North,355,6.0,6.3,98,0.00,,,-99.99,FreeWX-Wi 1.01,2013-04-12 08:14:00,
2013-04-12 03:19:00,30.2,29.7,28.23,North,353,5.0,6.7,98,0.00,,,-99.99,FreeWX-Wi 1.01,2013-04-12 08:19:00,
2013-04-12 03:24:00,30.0,29.5,28.23,North,352,5.0,7.6,98,0.00,,,-99.99,FreeWX-Wi 1.01,2013-04-12 08:24:00,
2013-04-12 03:29:00,29.8,29.3,28.23,North,350,5.0,8.3,98,0.00,,,-99.99,FreeWX-Wi 1.01,2013-04-12 08:29:00,
2013-04-12 03:34:00,29.8,29.3,28.23,North,350,5.0,6.3,98,0.00,,,-99.99,FreeWX-Wi 1.01,2013-04-12 08:34:00,
2013-04-12 03:39:00,29.7,29.1,28.23,North,350,5.0,7.6,98,0.00,,,-99.99,FreeWX-Wi 1.01,2013-04-12 08:39:00,
2013-04-12 03:44:00,29.5,28.9,28.23,North,350,6.0,9.6,98,0.00,,,-99.99,FreeWX-Wi 1.01,2013-04-12 08:44:00,
2013-04-12 03:49:00,29.5,28.9,28.23,North,351,6.0,8.1,98,0.00,,,-99.99,FreeWX-Wi 1.01,2013-04-12 08:49:00,
2013-04-12 03:54:00,29.7,29.1,28.23,North,350,5.0,5.8,98,0.00,,,-99.99,FreeWX-Wi 1.01,2013-04-12 08:54:00,
2013-04-12 03:59:00,29.7,29.1,28.23,North,350,5.0,8.1,98,0.00,,,-99.99,FreeWX-Wi 1.01,2013-04-12 08:59:00,
2013-04-12 04:05:00,29.5,28.9,28.23,North,350,6.0,7.6,98,0.00,,,-99.99,FreeWX-Wi 1.01,2013-04-12 09:05:00,
2013-04-12 04:10:00,29.5,28.9,28.23,North,350,5.0,7.2,98,0.00,,,-99.99,FreeWX-Wi 1.01,2013-04-12 09:10:00,
2013-04-12 04:15:00,29.5,28.9,28.23,North,349,5.0,6.3,98,0.00,,,-99.99,FreeWX-Wi 1.01,2013-04-12 09:15:00,
2013-04-12 04:20:00,29.5,28.9,28.23,NNW,347,5.0,8.1,98,0.00,,,-99.99,FreeWX-Wi 1.01,2013-04-12 09:20:00,
2013-04-12 04:25:00,29.5,28.9,28.23,NNW,345,5.0,7.6,98,0.00,,,-99.99,FreeWX-Wi 1.01,2013-04-12 09:25:00,
2013-04-12 04:30:00,29.3,28.8,28.23,NNW,344,5.0,6.3,98,0.00,,,-99.99,FreeWX-Wi 1.01,2013-04-12 09:30:00,
2013-04-12 04:35:00,29.3,28.8,28.26,NNW,344,5.0,7.6,98,0.00,,,-99.99,FreeWX-Wi 1.01,2013-04-12 09:35:00,
2013-04-12 04:40:00,29.3,28.8,28.26,NNW,343,5.0,6.3,98,0.00,,,-99.99,FreeWX-Wi 1.01,2013-04-12 09:40:00,
2013-04-12 04:45:00,29.3,28.8,28.26,NNW,343,5.0,8.1,98,0.00,,,-99.99,FreeWX-Wi 1.01,2013-04-12 09:45:00,
2013-04-12 04:50:00,29.3,28.8,28.26,NNW,344,5.0,7.6,98,0.00,,,-99.99,FreeWX-Wi 1.01,2013-04-12 09:50:00,
2013-04-12 04:55:00,29.3,28.8,28.26,NNW,345,5.0,6.7,98,0.00,,,-99.99,FreeWX-Wi 1.01,2013-04-12 09:55:00,
2013-04-12 05:01:00,29.3,28.8,28.26,NNW,345,5.0,8.3,98,0.00,,,-99.99,FreeWX-Wi 1.01,2013-04-12 10:01:00,
2013-04-12 05:06:00,29.3,28.8,28.26,NNW,345,5.0,8.7,98,0.00,,,-99.99,FreeWX-Wi 1.01,2013-04-12 10:06:00,
2013-04-12 05:11:00,29.1,28.6,28.26,NNW,344,5.0,7.6,98,0.00,,,-99.99,FreeWX-Wi 1.01,2013-04-12 10:11:00,
2013-04-12 05:16:00,29.1,28.6,28.26,NNW,344,5.0,6.7,98,0.00,,,-99.99,FreeWX-Wi 1.01,2013-04-12 10:16:00,
2013-04-12 05:26:00,29.1,28.4,28.26,NNW,343,5.0,6.7,97,0.00,,,-99.99,FreeWX-Wi 1.01,2013-04-12 10:26:00,
2013-04-12 05:31:00,29.1,28.4,28.26,NNW,343,5.0,6.3,97,0.00,,,-99.99,FreeWX-Wi 1.01,2013-04-12 10:31:00,
2013-04-12 05:37:00,28.9,28.2,28.23,NNW,343,5.0,6.3,97,0.00,,,-99.99,FreeWX-Wi 1.01,2013-04-12 10:37:00,
2013-04-12 05:42:00,28.9,28.2,28.23,NNW,343,5.0,8.7,97,0.00,,,-99.99,FreeWX-Wi 1.01,2013-04-12 10:42:00,
2013-04-12 05:47:00,28.8,27.7,28.23,NNW,343,5.0,6.3,96,0.00,,,-99.99,FreeWX-Wi 1.01,2013-04-12 10:47:00,
2013-04-12 05:52:00,28.6,27.5,28.26,NNW,343,5.0,8.3,96,0.00,,,-99.99,FreeWX-Wi 1.01,2013-04-12 10:52:00,
2013-04-12 05:57:00,28.6,27.3,28.26,NNW,343,5.0,6.7,95,0.00,,,-99.99,FreeWX-Wi 1.01,2013-04-12 10:57:00,
2013-04-12 06:02:00,28.6,27.3,28.26,NNW,342,5.0,6.3,95,0.00,,,-99.99,FreeWX-Wi 1.01,2013-04-12 11:02:00,
2013-04-12 06:07:00,28.6,27.1,28.26,NNW,342,5.0,6.3,94,0.00,,,-99.99,FreeWX-Wi 1.01,2013-04-12 11:07:00,
2013-04-12 06:12:00,28.4,27.0,28.26,NNW,341,5.0,8.3,94,0.00,,,-99.99,FreeWX-Wi 1.01,2013-04-12 11:12:00,
2013-04-12 06:17:00,28.2,26.8,28.26,NNW,341,5.0,7.6,94,0.00,,,-99.99,FreeWX-Wi 1.01,2013-04-12 11:17:00,
2013-04-12 06:22:00,28.2,26.4,28.26,NNW,341,5.0,8.1,93,0.00,,,-99.99,FreeWX-Wi 1.01,2013-04-12 11:22:00,
2013-04-12 06:27:00,28.2,26.4,28.26,NNW,341,5.0,7.2,93,0.00,,,-99.99,FreeWX-Wi 1.01,2013-04-12 11:27:00,
2013-04-12 06:32:00,28.2,26.8,28.26,NNW,342,5.0,8.3,94,0.00,,,-99.99,FreeWX-Wi 1.01,2013-04-12 11:32:00,
2013-04-12 06:37:00,28.2,26.8,28.26,NNW,343,5.0,8.3,94,0.00,,,-99.99,FreeWX-Wi 1.01,2013-04-12 11:37:00,
2013-04-12 06:43:00,28.2,26.8,28.26,NNW,343,5.0,7.2,94,0.00,,,-99.99,FreeWX-Wi 1.01,2013-04-12 11:43:00,
2013-04-12 06:48:00,28.2,26.8,28.26,NNW,343,5.0,8.3,94,0.00,,,-99.99,FreeWX-Wi 1.01,2013-04-12 11:48:00,
2013-04-12 06:53:00,28.2,26.8,28.26,NNW,343,5.0,7.6,94,0.00,,,-99.99,FreeWX-Wi 1.01,2013-04-12 11:53:00,
2013-04-12 06:58:00,28.2,26.4,28.26,NNW,341,5.0,6.7,93,0.00,,,-99.99,FreeWX-Wi 1.01,2013-04-12 11:58:00,
2013-04-12 07:03:00,28.0,26.1,28.29,NNW,338,5.0,6.3,92,0.00,,,-99.99,FreeWX-Wi 1.01,2013-04-12 12:03:00,
2013-04-12 07:08:00,28.2,26.4,28.29,NNW,335,5.0,8.1,93,0.00,,,-99.99,FreeWX-Wi 1.01,2013-04-12 12:08:00,
2013-04-12 07:13:00,28.4,26.6,28.29,NNW,333,5.0,6.3,93,0.00,,,-99.99,FreeWX-Wi 1.01,2013-04-12 12:13:00,
2013-04-12 07:18:00,28.4,26.6,28.29,NNW,330,5.0,8.7,93,0.00,,,-99.99,FreeWX-Wi 1.01,2013-04-12 12:18:00,
2013-04-12 07:23:00,28.6,26.6,28.29,NNW,328,5.0,6.3,92,0.00,,,-99.99,FreeWX-Wi 1.01,2013-04-12 12:23:00,
2013-04-12 07:28:00,28.8,26.8,28.29,NW,326,4.0,6.3,92,0.00,,,-99.99,FreeWX-Wi 1.01,2013-04-12 12:28:00,
2013-04-12 07:34:00,28.8,26.2,28.29,NNW,327,4.0,6.3,90,0.00,,,-99.99,FreeWX-Wi 1.01,2013-04-12 12:34:00,
2013-04-12 07:39:00,28.8,25.7,28.29,NNW,328,4.0,6.3,88,0.00,,,-99.99,FreeWX-Wi 1.01,2013-04-12 12:39:00,
2013-04-12 07:44:00,28.9,25.9,28.29,NNW,329,4.0,5.8,88,0.00,,,-99.99,FreeWX-Wi 1.01,2013-04-12 12:44:00,
2013-04-12 07:49:00,28.9,25.5,28.32,NNW,329,5.0,8.7,87,0.00,,,-99.99,FreeWX-Wi 1.01,2013-04-12 12:49:00,
2013-04-12 07:59:00,29.1,25.7,28.32,NNW,328,5.0,6.3,87,0.00,,,-99.99,FreeWX-Wi 1.01,2013-04-12 12:59:00,
2013-04-12 08:04:00,28.9,25.3,28.32,NNW,327,5.0,7.6,86,0.00,,,-99.99,FreeWX-Wi 1.01,2013-04-12 13:04:00,
2013-04-12 08:09:00,29.3,25.7,28.32,NNW,327,5.0,6.3,86,0.00,,,-99.99,FreeWX-Wi 1.01,2013-04-12 13:09:00,
2013-04-12 08:15:00,29.8,26.4,28.32,NNW,332,5.0,7.2,87,0.00,,,-99.99,FreeWX-Wi 1.01,2013-04-12 13:15:00,
2013-04-12 08:20:00,29.8,25.9,28.32,NNW,331,5.0,8.1,85,0.00,,,-99.99,FreeWX-Wi 1.01,2013-04-12 13:20:00,
2013-04-12 08:25:00,29.8,25.5,28.32,NNW,332,5.0,7.6,84,0.00,,,-99.99,FreeWX-Wi 1.01,2013-04-12 13:25:00,
2013-04-12 08:37:00,29.8,25.5,28.32,NW,325,5.0,6.3,84,0.00,,,-99.99,FreeWX-Wi 1.01,2013-04-12 13:37:00,
2013-04-12 08:42:00,30.0,25.7,28.32,NW,326,5.0,6.3,84,0.00,,,-99.99,FreeWX-Wi 1.01,2013-04-12 13:42:00,
2013-04-12 08:47:00,30.2,25.3,28.32,NW,326,5.0,8.3,82,0.00,,,-99.99,FreeWX-Wi 1.01,2013-04-12 13:47:00,
2013-04-12 08:53:00,30.4,25.9,28.32,NW,326,5.0,6.3,83,0.00,,,-99.99,FreeWX-Wi 1.01,2013-04-12 13:53:00,
2013-04-12 08:58:00,30.0,25.2,28.32,NW,326,5.0,5.8,82,0.00,,,-99.99,FreeWX-Wi 1.01,2013-04-12 13:58:00,
2013-04-12 09:03:00,30.2,25.3,28.32,NW,326,5.0,7.2,82,0.00,,,-99.99,FreeWX-Wi 1.01,2013-04-12 14:03:00,
2013-04-12 09:08:00,30.2,25.2,28.32,NW,326,4.0,6.3,81,0.00,,,-99.99,FreeWX-Wi 1.01,2013-04-12 14:08:00,
2013-04-12 09:13:00,31.1,25.7,28.32,NW,325,4.0,7.6,80,0.00,,,-99.99,FreeWX-Wi 1.01,2013-04-12 14:13:00,
2013-04-12 09:18:00,30.9,24.8,28.32,NW,325,4.0,6.3,78,0.00,,,-99.99,FreeWX-Wi 1.01,2013-04-12 14:18:00,
2013-04-12 09:23:00,31.1,25.3,28.32,NW,326,4.0,6.3,79,0.00,,,-99.99,FreeWX-Wi 1.01,2013-04-12 14:23:00,
2013-04-12 09:28:00,31.3,25.5,28.32,NW,326,4.0,6.3,79,0.00,,,-99.99,FreeWX-Wi 1.01,2013-04-12 14:28:00,
2013-04-12 09:33:00,30.7,25.3,28.35,NW,325,4.0,5.8,80,0.00,,,-99.99,FreeWX-Wi 1.01,2013-04-12 14:33:00,
2013-04-12 09:38:00,30.0,25.0,28.35,NW,322,4.0,5.4,81,0.00,,,-99.99,FreeWX-Wi 1.01,2013-04-12 14:38:00,
2013-04-12 09:43:00,30.0,25.5,28.35,NW,319,4.0,5.4,83,0.00,,,-99.99,FreeWX-Wi 1.01,2013-04-12 14:43:00,
2013-04-12 09:48:00,30.4,25.5,28.35,NW,316,4.0,5.8,82,0.00,,,-99.99,FreeWX-Wi 1.01,2013-04-12 14:48:00,
2013-04-12 09:54:00,30.7,25.0,28.35,NW,315,4.0,5.8,79,0.00,,,-99.99,FreeWX-Wi 1.01,2013-04-12 14:54:00,
2013-04-12 09:59:00,30.2,24.3,28.35,NW,315,4.0,5.8,78,0.00,,,-99.99,FreeWX-Wi 1.01,2013-04-12 14:59:00,
2013-04-12 10:04:00,30.0,24.6,28.35,NW,314,4.0,5.8,80,0.00,,,-99.99,FreeWX-Wi 1.01,2013-04-12 15:04:00,
2013-04-12 10:09:00,30.4,24.6,28.35,NW,317,4.0,5.8,79,0.00,,,-99.99,FreeWX-Wi 1.01,2013-04-12 15:09:00,
2013-04-12 10:14:00,30.4,24.6,28.35,NW,319,4.0,4.9,79,0.00,,,-99.99,FreeWX-Wi 1.01,2013-04-12 15:14:00,
2013-04-12 10:19:00,31.1,25.7,28.35,NW,319,4.0,5.8,80,0.00,,,-99.99,FreeWX-Wi 1.01,2013-04-12 15:19:00,
2013-04-12 10:24:00,30.6,24.3,28.35,NW,319,4.0,6.3,77,0.00,,,-99.99,FreeWX-Wi 1.01,2013-04-12 15:24:00,
2013-04-12 10:29:00,30.9,25.2,28.35,NW,319,4.0,5.4,79,0.00,,,-99.99,FreeWX-Wi 1.01,2013-04-12 15:29:00,
2013-04-12 10:34:00,31.1,25.0,28.35,NW,321,4.0,5.8,78,0.00,,,-99.99,FreeWX-Wi 1.01,2013-04-12 15:34:00,
2013-04-12 10:39:00,31.3,25.2,28.35,NW,321,4.0,5.4,78,0.00,,,-99.99,FreeWX-Wi 1.01,2013-04-12 15:39:00,
2013-04-12 10:44:00,30.9,25.2,28.35,NW,319,4.0,5.8,79,0.00,,,-99.99,FreeWX-Wi 1.01,2013-04-12 15:44:00,
2013-04-12 10:50:00,30.7,24.4,28.35,NW,317,4.0,6.3,77,0.00,,,-99.99,FreeWX-Wi 1.01,2013-04-12 15:50:00,
2013-04-12 10:55:00,30.9,25.2,28.35,NW,317,4.0,6.3,79,0.00,,,-99.99,FreeWX-Wi 1.01,2013-04-12 15:55:00,
2013-04-12 11:00:00,30.7,25.3,28.35,NW,314,4.0,6.3,80,0.00,,,-99.99,FreeWX-Wi 1.01,2013-04-12 16:00:00,
2013-04-12 11:05:00,30.9,25.2,28.35,NW,313,4.0,8.1,79,0.00,,,-99.99,FreeWX-Wi 1.01,2013-04-12 16:05:00,
2013-04-12 11:10:00,30.9,24.6,28.35,NW,311,4.0,6.3,77,0.00,,,-99.99,FreeWX-Wi 1.01,2013-04-12 16:10:00,
2013-04-12 11:15:00,31.1,25.3,28.35,NW,312,4.0,7.2,79,0.00,,,-99.99,FreeWX-Wi 1.01,2013-04-12 16:15:00,
2013-04-12 11:20:00,31.3,25.9,28.35,NW,313,4.0,10.5,80,0.00,,,-99.99,FreeWX-Wi 1.01,2013-04-12 16:20:00,
2013-04-12 11:25:00,31.3,26.8,28.35,NW,309,4.0,7.6,83,0.00,,,-99.99,FreeWX-Wi 1.01,2013-04-12 16:25:00,
2013-04-12 11:30:00,31.1,25.7,28.35,NW,307,5.0,8.7,80,0.00,,,-99.99,FreeWX-Wi 1.01,2013-04-12 16:30:00,
2013-04-12 11:35:00,30.9,24.8,28.38,NW,305,5.0,10.1,78,0.00,,,-99.99,FreeWX-Wi 1.01,2013-04-12 16:35:00,
2013-04-12 11:40:00,31.3,26.4,28.38,NW,304,5.0,6.3,82,0.00,,,-99.99,FreeWX-Wi 1.01,2013-04-12 16:40:00,
2013-04-12 11:45:00,30.9,24.8,28.38,WNW,301,5.0,8.3,78,0.00,,,-99.99,FreeWX-Wi 1.01,2013-04-12 16:45:00,
2013-04-12 11:50:00,30.9,24.8,28.38,WNW,298,5.0,8.7,78,0.00,,,-99.99,FreeWX-Wi 1.01,2013-04-12 16:50:00,
2013-04-12 11:55:00,30.9,24.8,28.38,WNW,296,6.0,8.7,78,0.00,,,-99.99,FreeWX-Wi 1.01,2013-04-12 16:55:00,
2013-04-12 12:50:00,31.3,22.6,28.38,WNW,298,6.0,8.7,70,0.00,,,-99.99,FreeWX-Wi 1.01,2013-04-12 17:50:00,
2013-04-12 12:56:00,31.5,23.9,28.38,WNW,299,6.0,10.5,73,0.00,,,-99.99,FreeWX-Wi 1.01,2013-04-12 17:56:00,
2013-04-12 13:06:00,30.7,24.1,28.38,WNW,294,6.0,10.1,76,0.00,,,-99.99,FreeWX-Wi 1.01,2013-04-12 18:06:00,
2013-04-12 13:11:00,31.1,25.3,28.38,WNW,289,5.0,5.0,79,0.00,,,-99.99,FreeWX-Wi 1.01,2013-04-12 18:11:00,
2013-04-12 13:22:00,31.1,24.4,28.38,WNW,288,6.0,10.5,76,0.00,,,-99.99,FreeWX-Wi 1.01,2013-04-12 18:22:00,
2013-04-12 13:27:00,31.1,24.4,28.38,WNW,288,5.0,9.6,76,0.00,,,-99.99,FreeWX-Wi 1.01,2013-04-12 18:27:00,
2013-04-12 14:26:00,32.5,24.6,28.38,WNW,302,7.0,12.3,72,0.00,,,-99.99,FreeWX-Wi 1.01,2013-04-12 19:26:00,
2013-04-12 14:31:00,33.1,26.1,28.38,WNW,302,7.0,10.1,75,0.00,,,-99.99,FreeWX-Wi 1.01,2013-04-12 19:31:00,
2013-04-12 14:36:00,32.4,24.6,28.38,NW,304,7.0,12.3,73,0.00,,,-99.99,FreeWX-Wi 1.01,2013-04-12 19:36:00,
2013-04-12 14:41:00,32.2,24.4,28.38,WNW,303,7.0,9.6,73,0.00,,,-99.99,FreeWX-Wi 1.01,2013-04-12 19:41:00,
2013-04-12 14:46:00,32.5,23.9,28.38,NW,304,7.0,10.5,70,0.00,,,-99.99,FreeWX-Wi 1.01,2013-04-12 19:46:00,
2013-04-12 14:51:00,33.6,24.3,28.38,NW,306,7.0,8.7,68,0.00,,,-99.99,FreeWX-Wi 1.01,2013-04-12 19:51:00,
2013-04-12 14:56:00,33.3,21.2,28.38,NW,306,6.0,8.7,61,0.00,,,-99.99,FreeWX-Wi 1.01,2013-04-12 19:56:00,
2013-04-12 15:02:00,33.6,23.5,28.38,NW,306,6.0,8.3,66,0.00,,,-99.99,FreeWX-Wi 1.01,2013-04-12 20:02:00,
2013-04-12 15:07:00,33.8,22.6,28.38,NW,304,6.0,10.1,63,0.00,,,-99.99,FreeWX-Wi 1.01,2013-04-12 20:07:00,
2013-04-12 15:12:00,34.0,21.6,28.38,WNW,302,6.0,10.5,60,0.00,,,-99.99,FreeWX-Wi 1.01,2013-04-12 20:12:00,
2013-04-12 15:17:00,34.0,23.5,28.38,WNW,302,6.0,8.7,65,0.00,,,-99.99,FreeWX-Wi 1.01,2013-04-12 20:17:00,
2013-04-12 15:22:00,33.6,22.5,28.38,WNW,303,6.0,6.3,63,0.00,,,-99.99,FreeWX-Wi 1.01,2013-04-12 20:22:00,
2013-04-12 15:27:00,33.4,21.0,28.38,WNW,302,6.0,6.3,60,0.00,,,-99.99,FreeWX-Wi 1.01,2013-04-12 20:27:00,
2013-04-12 15:32:00,33.6,22.5,28.41,WNW,302,6.0,8.7,63,0.00,,,-99.99,FreeWX-Wi 1.01,2013-04-12 20:32:00,
2013-04-12 15:37:00,33.3,22.1,28.41,WNW,302,6.0,8.3,63,0.00,,,-99.99,FreeWX-Wi 1.01,2013-04-12 20:37:00,
2013-04-12 15:42:00,33.4,23.0,28.41,NW,304,5.0,8.3,65,0.00,,,-99.99,FreeWX-Wi 1.01,2013-04-12 20:42:00,
2013-04-12 15:47:00,33.4,21.9,28.41,WNW,303,5.0,9.2,62,0.00,,,-99.99,FreeWX-Wi 1.01,2013-04-12 20:47:00,
2013-04-12 15:53:00,33.8,24.1,28.41,WNW,299,5.0,8.3,67,0.00,,,-99.99,FreeWX-Wi 1.01,2013-04-12 20:53:00,
2013-04-12 15:58:00,33.6,23.2,28.41,WNW,297,5.0,8.7,65,0.00,,,-99.99,FreeWX-Wi 1.01,2013-04-12 20:58:00,
2013-04-12 16:03:00,33.4,24.1,28.41,WNW,297,5.0,8.3,68,0.00,,,-99.99,FreeWX-Wi 1.01,2013-04-12 21:03:00,
2013-04-12 16:08:00,33.6,22.8,28.41,WNW,296,5.0,9.6,64,0.00,,,-99.99,FreeWX-Wi 1.01,2013-04-12 21:08:00,
2013-04-12 16:13:00,33.6,23.5,28.41,WNW,294,5.0,8.7,66,0.00,,,-99.99,FreeWX-Wi 1.01,2013-04-12 21:13:00,
2013-04-12 16:18:00,33.4,22.3,28.41,WNW,297,5.0,8.7,63,0.00,,,-99.99,FreeWX-Wi 1.01,2013-04-12 21:18:00,
2013-04-12 16:23:00,33.3,22.8,28.41,WNW,299,6.0,8.7,65,0.00,,,-99.99,FreeWX-Wi 1.01,2013-04-12 21:23:00,
2013-04-12 16:28:00,33.3,22.8,28.41,WNW,296,5.0,7.6,65,0.00,,,-99.99,FreeWX-Wi 1.01,2013-04-12 21:28:00,
2013-04-12 16:33:00,33.3,23.5,28.41,WNW,292,5.0,7.2,67,0.00,,,-99.99,FreeWX-Wi 1.01,2013-04-12 21:33:00,
2013-04-12 16:38:00,33.3,22.8,28.41,WNW,291,4.0,5.4,65,0.00,,,-99.99,FreeWX-Wi 1.01,2013-04-12 21:38:00,
2013-04-12 16:43:00,33.1,21.9,28.41,WNW,293,4.0,8.7,63,0.00,,,-99.99,FreeWX-Wi 1.01,2013-04-12 21:43:00,
2013-04-12 16:48:00,33.3,24.3,28.41,WNW,292,4.0,8.7,69,0.00,,,-99.99,FreeWX-Wi 1.01,2013-04-12 21:48:00,
2013-04-12 16:53:00,33.3,24.3,28.41,WNW,291,5.0,10.1,69,0.00,,,-99.99,FreeWX-Wi 1.01,2013-04-12 21:53:00,
2013-04-12 16:59:00,33.1,23.0,28.41,WNW,295,5.0,7.2,66,0.00,,,-99.99,FreeWX-Wi 1.01,2013-04-12 21:59:00,
2013-04-12 17:04:00,33.1,24.8,28.41,WNW,299,5.0,8.1,71,0.00,,,-99.99,FreeWX-Wi 1.01,2013-04-12 22:04:00,
2013-04-12 17:09:00,32.9,23.5,28.41,WNW,299,6.0,8.7,68,0.00,,,-99.99,FreeWX-Wi 1.01,2013-04-12 22:09:00,
2013-04-12 17:14:00,32.9,22.8,28.41,WNW,300,5.0,7.6,66,0.00,,,-99.99,FreeWX-Wi 1.01,2013-04-12 22:14:00,
2013-04-12 17:19:00,33.1,23.4,28.41,WNW,300,5.0,6.7,67,0.00,,,-99.99,FreeWX-Wi 1.01,2013-04-12 22:19:00,
2013-04-12 17:24:00,33.3,25.2,28.41,WNW,299,5.0,5.4,72,0.00,,,-99.99,FreeWX-Wi 1.01,2013-04-12 22:24:00,
2013-04-12 17:29:00,33.3,24.6,28.41,WNW,297,5.0,8.7,70,0.00,,,-99.99,FreeWX-Wi 1.01,2013-04-12 22:29:00,
2013-04-12 17:34:00,33.1,23.7,28.44,WNW,296,5.0,8.7,68,0.00,,,-99.99,FreeWX-Wi 1.01,2013-04-12 22:34:00,
2013-04-12 17:39:00,33.3,24.3,28.44,WNW,295,4.0,8.1,69,0.00,,,-99.99,FreeWX-Wi 1.01,2013-04-12 22:39:00,
2013-04-12 17:44:00,33.3,24.6,28.44,WNW,291,4.0,8.3,70,0.00,,,-99.99,FreeWX-Wi 1.01,2013-04-12 22:44:00,
2013-04-12 17:49:00,33.3,23.5,28.44,WNW,291,4.0,9.6,67,0.00,,,-99.99,FreeWX-Wi 1.01,2013-04-12 22:49:00,
2013-04-12 17:54:00,33.3,23.5,28.44,WNW,293,5.0,8.3,67,0.00,,,-99.99,FreeWX-Wi 1.01,2013-04-12 22:54:00,
2013-04-12 18:00:00,33.3,24.6,28.44,WNW,294,5.0,8.7,70,0.00,,,-99.99,FreeWX-Wi 1.01,2013-04-12 23:00:00,
2013-04-12 18:05:00,33.1,23.4,28.44,WNW,291,4.0,5.4,67,0.00,,,-99.99,FreeWX-Wi 1.01,2013-04-12 23:05:00,
2013-04-12 18:10:00,33.1,24.4,28.44,WNW,289,4.0,7.2,70,0.00,,,-99.99,FreeWX-Wi 1.01,2013-04-12 23:10:00,
2013-04-12 18:15:00,32.9,24.3,28.44,WNW,291,4.0,8.3,70,0.00,,,-99.99,FreeWX-Wi 1.01,2013-04-12 23:15:00,
2013-04-12 18:20:00,32.9,23.9,28.44,WNW,290,4.0,10.5,69,0.00,,,-99.99,FreeWX-Wi 1.01,2013-04-12 23:20:00,
2013-04-12 18:25:00,32.9,25.5,28.44,WNW,289,4.0,6.7,74,0.00,,,-99.99,FreeWX-Wi 1.01,2013-04-12 23:25:00,
2013-04-12 18:30:00,32.9,24.6,28.44,WNW,287,4.0,8.1,71,0.00,,,-99.99,FreeWX-Wi 1.01,2013-04-12 23:30:00,
2013-04-12 18:35:00,32.9,23.9,28.44,WNW,288,4.0,5.8,69,0.00,,,-99.99,FreeWX-Wi 1.01,2013-04-12 23:35:00,
2013-04-12 18:40:00,32.7,24.4,28.44,WNW,288,4.0,4.0,71,0.00,,,-99.99,FreeWX-Wi 1.01,2013-04-12 23:40:00,
2013-04-12 18:45:00,32.5,24.8,28.44,WNW,285,4.0,4.9,73,0.00,,,-99.99,FreeWX-Wi 1.01,2013-04-12 23:45:00,
2013-04-12 18:50:00,32.5,25.2,28.47,West,281,3.0,3.6,74,0.00,,,-99.99,FreeWX-Wi 1.01,2013-04-12 23:50:00,
2013-04-12 18:55:00,32.5,25.5,28.47,West,278,3.0,3.6,75,0.00,,,-99.99,FreeWX-Wi 1.01,2013-04-12 23:55:00,
2013-04-12 19:00:00,32.5,25.9,28.47,West,275,3.0,4.0,76,0.00,,,-99.99,FreeWX-Wi 1.01,2013-04-13 00:00:00,
2013-04-12 19:06:00,32.5,26.1,28.47,West,273,3.0,4.0,77,0.00,,,-99.99,FreeWX-Wi 1.01,2013-04-13 00:06:00,
2013-04-12 19:11:00,32.5,26.8,28.47,West,271,3.0,4.0,79,0.00,,,-99.99,FreeWX-Wi 1.01,2013-04-13 00:11:00,
2013-04-12 19:16:00,32.2,26.4,28.47,West,270,3.0,8.3,79,0.00,,,-99.99,FreeWX-Wi 1.01,2013-04-13 00:16:00,
2013-04-12 19:26:00,32.2,26.1,28.47,West,271,3.0,5.4,78,0.00,,,-99.99,FreeWX-Wi 1.01,2013-04-13 00:26:00,
2013-04-12 19:32:00,32.2,25.9,28.47,West,271,3.0,5.4,77,0.00,,,-99.99,FreeWX-Wi 1.01,2013-04-13 00:32:00,
2013-04-12 19:37:00,32.2,25.9,28.47,West,271,3.0,5.8,77,0.00,,,-99.99,FreeWX-Wi 1.01,2013-04-13 00:37:00,
2013-04-12 19:42:00,31.8,25.7,28.47,West,271,3.0,5.4,78,0.00,,,-99.99,FreeWX-Wi 1.01,2013-04-13 00:42:00,
2013-04-12 19:52:00,31.8,25.7,28.47,West,271,3.0,5.8,78,0.00,,,-99.99,FreeWX-Wi 1.01,2013-04-13 00:52:00,
2013-04-12 19:57:00,31.8,25.7,28.47,West,272,3.0,5.8,78,0.00,,,-99.99,FreeWX-Wi 1.01,2013-04-13 00:57:00,
2013-04-12 20:02:00,31.8,25.5,28.44,West,274,3.0,10.1,77,0.00,,,-99.99,FreeWX-Wi 1.01,2013-04-13 01:02:00,
2013-04-12 20:07:00,31.8,26.1,28.44,West,278,3.0,7.2,79,0.00,,,-99.99,FreeWX-Wi 1.01,2013-04-13 01:07:00,
2013-04-12 20:12:00,31.6,25.3,28.44,West,280,3.0,6.7,77,0.00,,,-99.99,FreeWX-Wi 1.01,2013-04-13 01:12:00,
2013-04-12 20:18:00,31.6,25.0,28.44,WNW,283,4.0,8.3,76,0.00,,,-99.99,FreeWX-Wi 1.01,2013-04-13 01:18:00,
2013-04-12 20:23:00,31.6,25.3,28.44,WNW,286,4.0,10.5,77,0.00,,,-99.99,FreeWX-Wi 1.01,2013-04-13 01:23:00,
2013-04-12 20:28:00,31.6,25.3,28.44,WNW,287,4.0,6.7,77,0.00,,,-99.99,FreeWX-Wi 1.01,2013-04-13 01:28:00,
2013-04-12 20:33:00,31.6,25.3,28.44,WNW,287,4.0,10.1,77,0.00,,,-99.99,FreeWX-Wi 1.01,2013-04-13 01:33:00,
2013-04-12 20:38:00,31.6,25.0,28.44,WNW,288,5.0,9.6,76,0.00,,,-99.99,FreeWX-Wi 1.01,2013-04-13 01:38:00,
2013-04-12 20:43:00,31.6,25.0,28.44,WNW,290,5.0,8.3,76,0.00,,,-99.99,FreeWX-Wi 1.01,2013-04-13 01:43:00,
2013-04-12 20:48:00,31.6,25.3,28.47,WNW,290,5.0,10.1,77,0.00,,,-99.99,FreeWX-Wi 1.01,2013-04-13 01:48:00,
2013-04-12 20:53:00,31.6,25.0,28.47,WNW,289,5.0,8.7,76,0.00,,,-99.99,FreeWX-Wi 1.01,2013-04-13 01:53:00,
2013-04-12 20:58:00,31.5,25.2,28.47,WNW,288,5.0,8.7,77,0.00,,,-99.99,FreeWX-Wi 1.01,2013-04-13 01:58:00,
2013-04-12 21:03:00,31.5,24.4,28.47,WNW,288,5.0,6.3,75,0.00,,,-99.99,FreeWX-Wi 1.01,2013-04-13 02:03:00,
2013-04-12 21:09:00,31.5,25.2,28.47,WNW,287,4.0,7.6,77,0.00,,,-99.99,FreeWX-Wi 1.01,2013-04-13 02:09:00,
2013-04-12 21:14:00,31.5,25.2,28.47,WNW,288,4.0,6.3,77,0.00,,,-99.99,FreeWX-Wi 1.01,2013-04-13 02:14:00,
2013-04-12 21:19:00,31.5,25.3,28.47,WNW,287,4.0,5.4,78,0.00,,,-99.99,FreeWX-Wi 1.01,2013-04-13 02:19:00,
2013-04-12 21:24:00,31.5,25.2,28.47,WNW,286,4.0,5.8,77,0.00,,,-99.99,FreeWX-Wi 1.01,2013-04-13 02:24:00,
2013-04-12 21:29:00,31.5,25.3,28.47,WNW,288,4.0,10.5,78,0.00,,,-99.99,FreeWX-Wi 1.01,2013-04-13 02:29:00,
2013-04-12 21:34:00,31.5,25.3,28.47,WNW,289,4.0,8.3,78,0.00,,,-99.99,FreeWX-Wi 1.01,2013-04-13 02:34:00,
2013-04-12 21:39:00,31.3,25.2,28.47,WNW,290,4.0,10.1,78,0.00,,,-99.99,FreeWX-Wi 1.01,2013-04-13 02:39:00,
2013-04-12 21:44:00,31.3,25.0,28.47,WNW,289,4.0,8.7,77,0.00,,,-99.99,FreeWX-Wi 1.01,2013-04-13 02:44:00,
2013-04-12 21:49:00,31.5,25.7,28.47,WNW,292,5.0,8.3,79,0.00,,,-99.99,FreeWX-Wi 1.01,2013-04-13 02:49:00,
2013-04-12 21:54:00,31.5,25.7,28.47,WNW,294,5.0,8.1,79,0.00,,,-99.99,FreeWX-Wi 1.01,2013-04-13 02:54:00,
2013-04-12 21:59:00,31.3,25.0,28.47,WNW,294,5.0,8.7,77,0.00,,,-99.99,FreeWX-Wi 1.01,2013-04-13 02:59:00,
2013-04-12 22:05:00,31.3,24.6,28.47,WNW,296,6.0,10.1,76,0.00,,,-99.99,FreeWX-Wi 1.01,2013-04-13 03:05:00,
2013-04-12 22:10:00,31.1,23.7,28.47,WNW,295,6.0,11.0,74,0.00,,,-99.99,FreeWX-Wi 1.01,2013-04-13 03:10:00,
2013-04-12 22:15:00,31.1,24.8,28.47,WNW,295,6.0,9.2,77,0.00,,,-99.99,FreeWX-Wi 1.01,2013-04-13 03:15:00,
2013-04-12 22:20:00,31.1,25.0,28.47,WNW,294,6.0,8.3,78,0.00,,,-99.99,FreeWX-Wi 1.01,2013-04-13 03:20:00,
2013-04-12 22:25:00,31.1,25.0,28.47,WNW,293,6.0,8.3,78,0.00,,,-99.99,FreeWX-Wi 1.01,2013-04-13 03:25:00,
2013-04-12 22:30:00,31.1,25.0,28.47,WNW,292,6.0,8.3,78,0.00,,,-99.99,FreeWX-Wi 1.01,2013-04-13 03:30:00,
2013-04-12 22:35:00,31.1,25.3,28.47,WNW,294,6.0,7.6,79,0.00,,,-99.99,FreeWX-Wi 1.01,2013-04-13 03:35:00,
2013-04-12 22:40:00,31.1,25.3,28.47,WNW,294,5.0,7.6,79,0.00,,,-99.99,FreeWX-Wi 1.01,2013-04-13 03:40:00,
2013-04-12 22:45:00,31.1,25.7,28.47,WNW,293,5.0,6.3,80,0.00,,,-99.99,FreeWX-Wi 1.01,2013-04-13 03:45:00,
2013-04-12 22:50:00,30.7,25.3,28.47,WNW,291,4.0,5.4,80,0.00,,,-99.99,FreeWX-Wi 1.01,2013-04-13 03:50:00,
2013-04-12 22:55:00,30.9,24.8,28.47,WNW,291,4.0,8.1,78,0.00,,,-99.99,FreeWX-Wi 1.01,2013-04-13 03:55:00,
2013-04-12 23:00:00,31.1,25.3,28.47,WNW,293,4.0,8.3,79,0.00,,,-99.99,FreeWX-Wi 1.01,2013-04-13 04:00:00,
2013-04-12 23:05:00,31.1,25.3,28.50,WNW,293,4.0,8.1,79,0.00,,,-99.99,FreeWX-Wi 1.01,2013-04-13 04:05:00,
2013-04-12 23:10:00,31.1,25.0,28.50,WNW,295,4.0,8.1,78,0.00,,,-99.99,FreeWX-Wi 1.01,2013-04-13 04:10:00,
2013-04-12 23:16:00,31.1,24.8,28.50,WNW,299,4.0,7.6,77,0.00,,,-99.99,FreeWX-Wi 1.01,2013-04-13 04:16:00,
2013-04-12 23:21:00,31.1,24.8,28.50,WNW,303,5.0,8.1,77,0.00,,,-99.99,FreeWX-Wi 1.01,2013-04-13 04:21:00,
2013-04-12 23:26:00,31.1,25.0,28.50,NW,306,5.0,7.2,78,0.00,,,-99.99,FreeWX-Wi 1.01,2013-04-13 04:26:00,
2013-04-12 23:36:00,30.9,25.5,28.50,NW,304,5.0,8.1,80,0.00,,,-99.99,FreeWX-Wi 1.01,2013-04-13 04:36:00,
2013-04-12 23:41:00,31.1,25.3,28.50,WNW,300,5.0,8.7,79,0.00,,,-99.99,FreeWX-Wi 1.01,2013-04-13 04:41:00,
2013-04-12 23:47:00,30.9,25.5,28.50,WNW,297,5.0,5.8,80,0.00,,,-99.99,FreeWX-Wi 1.01,2013-04-13 04:47:00,
2013-04-12 23:52:00,30.9,26.1,28.50,WNW,294,4.0,6.3,82,0.00,,,-99.99,FreeWX-Wi 1.01,2013-04-13 04:52:00,
2013-04-12 23:57:00,30.9,25.7,28.50,WNW,291,4.0,8.7,81,0.00,,,-99.99,FreeWX-Wi 1.01,2013-04-13 04:57:00,